Time,TemperatureF,DewpointF,PressureIn,WindDirection,WindDirectionDegrees,WindSpeedMPH,WindSpeedGustMPH,Humidity,HourlyPrecipIn,Conditions,Clouds,dailyrainin,SoftwareType,DateUTC
2013-06-29 00:00:00,65.8,38.9,30.15,North,0,10.1,10.1,37,0.00,,---,0.00,VWS V14.01,2013-06-29 06:00:00,
2013-06-29 00:06:00,65.5,38.5,30.15,North,3,8.3,8.3,37,0.00,,---,0.00,VWS V14.01,2013-06-29 06:06:00,
2013-06-29 00:12:00,65.5,39.2,30.15,North,4,12.3,12.3,38,0.00,,---,0.00,VWS V14.01,2013-06-29 06:12:00,
2013-06-29 00:17:00,65.3,40.4,30.15,North,357,11.0,11.0,40,0.00,,---,0.00,VWS V14.01,2013-06-29 06:17:00,
2013-06-29 00:22:00,65.1,40.2,30.15,North,2,11.9,11.9,40,0.00,,---,0.00,VWS V14.01,2013-06-29 06:22:00,
2013-06-29 00:27:00,65.1,39.6,30.15,North,3,10.5,10.5,39,0.00,,---,0.00,VWS V14.01,2013-06-29 06:27:00,
2013-06-29 00:33:00,65.5,39.9,30.15,North,5,11.0,11.0,39,0.00,,---,0.00,VWS V14.01,2013-06-29 06:33:00,
2013-06-29 00:38:00,65.8,39.5,30.15,NNE,14,10.5,10.5,38,0.00,,---,0.00,VWS V14.01,2013-06-29 06:38:00,
2013-06-29 00:43:00,65.8,39.5,30.15,NNE,12,10.5,10.5,38,0.00,,---,0.00,VWS V14.01,2013-06-29 06:43:00,
2013-06-29 00:48:00,66.0,39.7,30.15,North,10,8.1,8.1,38,0.00,,---,0.00,VWS V14.01,2013-06-29 06:48:00,
2013-06-29 00:53:00,66.0,39.7,30.15,North,10,8.3,8.3,38,0.00,,---,0.00,VWS V14.01,2013-06-29 06:53:00,
2013-06-29 00:59:00,65.8,38.9,30.15,North,11,8.7,9.2,37,0.00,,---,0.00,VWS V14.01,2013-06-29 06:59:00,
2013-06-29 01:05:00,65.3,38.4,30.15,North,8,9.2,9.2,37,0.00,,---,0.00,VWS V14.01,2013-06-29 07:05:00,
2013-06-29 01:10:00,64.9,38.8,30.18,North,8,10.5,10.5,38,0.00,,---,0.00,VWS V14.01,2013-06-29 07:10:00,
2013-06-29 01:16:00,64.4,38.3,30.18,NNE,12,11.0,11.0,38,0.00,,---,0.00,VWS V14.01,2013-06-29 07:16:00,
2013-06-29 01:22:00,64.2,38.1,30.18,North,7,13.2,13.2,38,0.00,,---,0.00,VWS V14.01,2013-06-29 07:22:00,
2013-06-29 01:27:00,63.7,38.9,30.15,North,357,13.2,13.6,40,0.00,,---,0.00,VWS V14.01,2013-06-29 07:27:00,
2013-06-29 01:33:00,64.2,40.7,30.15,North,7,11.4,11.4,42,0.00,,---,0.00,VWS V14.01,2013-06-29 07:33:00,
2013-06-29 01:38:00,64.8,41.2,30.15,NNE,20,11.4,11.4,42,0.00,,---,0.00,VWS V14.01,2013-06-29 07:38:00,
2013-06-29 01:44:00,65.1,40.9,30.15,NNE,23,10.5,10.5,41,0.00,,---,0.00,VWS V14.01,2013-06-29 07:44:00,
2013-06-29 01:49:00,65.3,41.0,30.15,NNE,12,10.1,11.0,41,0.00,,---,0.00,VWS V14.01,2013-06-29 07:49:00,
2013-06-29 01:55:00,65.3,40.4,30.15,North,7,10.5,10.5,40,0.00,,---,0.00,VWS V14.01,2013-06-29 07:55:00,
2013-06-29 02:01:00,65.3,40.4,30.15,NNE,14,8.7,8.7,40,0.00,,---,0.00,VWS V14.01,2013-06-29 08:01:00,
2013-06-29 02:06:00,65.1,39.6,30.15,North,11,8.3,8.3,39,0.00,,---,0.00,VWS V14.01,2013-06-29 08:06:00,
2013-06-29 02:12:00,64.8,39.2,30.15,North,7,7.6,8.1,39,0.00,,---,0.00,VWS V14.01,2013-06-29 08:12:00,
2013-06-29 02:17:00,64.2,39.4,30.15,North,11,7.6,8.3,40,0.00,,---,0.00,VWS V14.01,2013-06-29 08:17:00,
2013-06-29 02:23:00,64.4,39.6,30.15,NNE,22,8.7,8.7,40,0.00,,---,0.00,VWS V14.01,2013-06-29 08:23:00,
2013-06-29 02:28:00,64.8,39.9,30.15,NNE,24,8.1,8.7,40,0.00,,---,0.00,VWS V14.01,2013-06-29 08:28:00,
2013-06-29 02:33:00,64.9,40.1,30.15,NNE,15,7.6,8.3,40,0.00,,---,0.00,VWS V14.01,2013-06-29 08:33:00,
2013-06-29 02:39:00,64.9,40.1,30.15,North,2,5.8,6.3,40,0.00,,---,0.00,VWS V14.01,2013-06-29 08:39:00,
2013-06-29 02:44:00,64.6,39.7,30.15,North,9,5.4,5.8,40,0.00,,---,0.00,VWS V14.01,2013-06-29 08:44:00,
2013-06-29 02:50:00,64.0,39.2,30.15,North,9,0.0,0.0,40,0.00,,---,0.00,VWS V14.01,2013-06-29 08:50:00,
2013-06-29 02:56:00,63.1,39.1,30.15,WNW,294,3.1,3.1,41,0.00,,---,0.00,VWS V14.01,2013-06-29 08:56:00,
2013-06-29 03:01:00,63.1,39.1,30.15,WNW,293,0.0,0.0,41,0.00,,---,0.00,VWS V14.01,2013-06-29 09:01:00,
2013-06-29 03:07:00,61.2,38.5,30.15,WNW,303,0.0,0.0,43,0.00,,---,0.00,VWS V14.01,2013-06-29 09:07:00,
2013-06-29 03:12:00,61.2,39.7,30.15,NNW,342,4.9,4.9,45,0.00,,---,0.00,VWS V14.01,2013-06-29 09:12:00,
2013-06-29 03:18:00,61.2,40.2,30.15,NNW,332,6.3,6.7,46,0.00,,---,0.00,VWS V14.01,2013-06-29 09:18:00,
2013-06-29 03:24:00,61.2,40.2,30.15,WNW,294,0.0,2.2,46,0.00,,---,0.00,VWS V14.01,2013-06-29 09:24:00,
2013-06-29 03:29:00,60.8,41.0,30.15,SW,230,6.3,6.3,48,0.00,,---,0.00,VWS V14.01,2013-06-29 09:29:00,
2013-06-29 03:35:00,60.6,41.9,30.15,WSW,249,7.6,7.6,50,0.00,,---,0.00,VWS V14.01,2013-06-29 09:35:00,
2013-06-29 03:40:00,60.6,42.4,30.15,WSW,255,4.0,4.0,51,0.00,,---,0.00,VWS V14.01,2013-06-29 09:40:00,
2013-06-29 03:46:00,60.6,42.4,30.15,WSW,253,5.8,5.8,51,0.00,,---,0.00,VWS V14.01,2013-06-29 09:46:00,
2013-06-29 03:52:00,60.4,42.2,30.15,West,275,5.8,6.7,51,0.00,,---,0.00,VWS V14.01,2013-06-29 09:52:00,
2013-06-29 03:57:00,60.1,41.9,30.15,WNW,282,7.6,7.6,51,0.00,,---,0.00,VWS V14.01,2013-06-29 09:57:00,
2013-06-29 04:03:00,59.9,42.2,30.15,West,278,7.6,7.6,52,0.00,,---,0.00,VWS V14.01,2013-06-29 10:03:00,
2013-06-29 04:08:00,60.4,44.7,30.18,WNW,286,8.1,8.1,56,0.00,,---,0.00,VWS V14.01,2013-06-29 10:08:00,
2013-06-29 04:14:00,61.9,44.6,30.18,WNW,290,7.6,7.6,53,0.00,,---,0.00,VWS V14.01,2013-06-29 10:14:00,
2013-06-29 04:19:00,61.5,43.2,30.18,WNW,292,7.2,7.2,51,0.00,,---,0.00,VWS V14.01,2013-06-29 10:19:00,
2013-06-29 04:25:00,61.2,42.9,30.15,WNW,288,7.6,7.6,51,0.00,,---,0.00,VWS V14.01,2013-06-29 10:25:00,
2013-06-29 04:31:00,60.8,42.1,30.15,WNW,290,7.6,7.6,50,0.00,,---,0.00,VWS V14.01,2013-06-29 10:31:00,
2013-06-29 04:36:00,60.4,42.2,30.15,WNW,292,7.6,7.6,51,0.00,,---,0.00,VWS V14.01,2013-06-29 10:36:00,
2013-06-29 04:41:00,60.4,42.2,30.15,WNW,291,7.6,7.6,51,0.00,,---,0.00,VWS V14.01,2013-06-29 10:41:00,
2013-06-29 04:46:00,60.4,42.2,30.15,WNW,291,7.6,7.6,51,0.00,,---,0.00,VWS V14.01,2013-06-29 10:46:00,
2013-06-29 04:52:00,60.3,42.1,30.15,WNW,298,7.6,7.6,51,0.00,,---,0.00,VWS V14.01,2013-06-29 10:52:00,
2013-06-29 04:57:00,60.3,42.6,30.15,WNW,297,7.6,7.6,52,0.00,,---,0.00,VWS V14.01,2013-06-29 10:57:00,
2013-06-29 05:02:00,60.6,42.9,30.18,WNW,299,6.3,7.2,52,0.00,,---,0.00,VWS V14.01,2013-06-29 11:02:00,
2013-06-29 05:07:00,60.8,42.6,30.18,NW,317,6.3,7.6,51,0.00,,---,0.00,VWS V14.01,2013-06-29 11:07:00,
2013-06-29 05:13:00,60.6,42.4,30.18,NW,315,7.6,7.6,51,0.00,,---,0.00,VWS V14.01,2013-06-29 11:13:00,
2013-06-29 05:18:00,60.4,42.2,30.18,NW,308,6.3,6.3,51,0.00,,---,0.00,VWS V14.01,2013-06-29 11:18:00,
2013-06-29 05:24:00,60.3,42.1,30.18,NW,306,4.9,5.4,51,0.00,,---,0.00,VWS V14.01,2013-06-29 11:24:00,
2013-06-29 05:30:00,60.3,42.1,30.18,NW,305,4.0,4.0,51,0.00,,---,0.00,VWS V14.01,2013-06-29 11:30:00,
2013-06-29 05:35:00,60.3,42.1,30.18,NW,305,4.9,4.9,51,0.00,,---,0.00,VWS V14.01,2013-06-29 11:35:00,
2013-06-29 05:41:00,60.4,42.2,30.18,NW,305,6.3,6.3,51,0.00,,---,0.00,VWS V14.01,2013-06-29 11:41:00,
2013-06-29 05:46:00,60.6,42.4,30.18,NW,308,7.2,7.2,51,0.00,,---,0.00,VWS V14.01,2013-06-29 11:46:00,
2013-06-29 05:52:00,61.9,43.6,30.18,NW,312,6.3,7.6,51,0.00,,---,0.00,VWS V14.01,2013-06-29 11:52:00,
2013-06-29 05:57:00,63.3,43.8,30.18,NW,319,6.3,6.3,49,0.00,,---,0.00,VWS V14.01,2013-06-29 11:57:00,
2013-06-29 06:03:00,64.0,43.4,30.18,NW,321,5.8,7.6,47,0.00,,---,0.00,VWS V14.01,2013-06-29 12:03:00,
2013-06-29 06:08:00,64.4,42.6,30.15,NNW,327,6.3,6.3,45,0.00,,---,0.00,VWS V14.01,2013-06-29 12:08:00,
2013-06-29 06:13:00,64.8,43.0,30.15,NW,323,5.4,6.3,45,0.00,,---,0.00,VWS V14.01,2013-06-29 12:13:00,
2013-06-29 06:19:00,65.1,43.3,30.15,NW,321,6.3,6.3,45,0.00,,---,0.00,VWS V14.01,2013-06-29 12:19:00,
2013-06-29 06:24:00,65.7,43.8,30.15,NW,323,5.4,6.7,45,0.00,,---,0.00,VWS V14.01,2013-06-29 12:24:00,
2013-06-29 06:29:00,65.8,43.9,30.15,NW,320,5.8,5.8,45,0.00,,---,0.00,VWS V14.01,2013-06-29 12:29:00,
2013-06-29 06:34:00,66.6,43.4,30.15,NW,318,8.1,8.1,43,0.00,,---,0.00,VWS V14.01,2013-06-29 12:34:00,
2013-06-29 06:41:00,67.3,44.0,30.18,NW,322,3.6,3.6,43,0.00,,---,0.00,VWS V14.01,2013-06-29 12:41:00,
2013-06-29 06:47:00,68.2,44.9,30.18,NW,321,2.7,4.0,43,0.00,,---,0.00,VWS V14.01,2013-06-29 12:47:00,
2013-06-29 06:52:00,68.9,44.9,30.18,NW,321,0.0,0.0,42,0.00,,---,0.00,VWS V14.01,2013-06-29 12:52:00,
2013-06-29 06:58:00,70.2,44.1,30.18,NW,321,0.0,0.0,39,0.00,,---,0.00,VWS V14.01,2013-06-29 12:58:00,
2013-06-29 07:05:00,71.6,43.3,30.18,NW,321,4.0,4.0,36,0.00,,---,0.00,VWS V14.01,2013-06-29 13:05:00,
2013-06-29 07:10:00,72.3,42.4,30.15,WNW,303,4.5,4.5,34,0.00,,---,0.00,VWS V14.01,2013-06-29 13:10:00,
2013-06-29 07:16:00,72.9,42.1,30.15,WNW,298,4.9,4.9,33,0.00,,---,0.00,VWS V14.01,2013-06-29 13:16:00,
2013-06-29 07:22:00,73.6,41.9,30.15,WNW,294,3.1,4.0,32,0.00,,---,0.00,VWS V14.01,2013-06-29 13:22:00,
2013-06-29 07:27:00,74.7,42.0,30.15,WNW,293,5.4,5.4,31,0.00,,---,0.00,VWS V14.01,2013-06-29 13:27:00,
2013-06-29 07:32:00,75.6,42.8,30.15,West,279,5.8,5.8,31,0.00,,---,0.00,VWS V14.01,2013-06-29 13:32:00,
2013-06-29 07:37:00,76.1,42.5,30.15,WNW,290,6.3,6.3,30,0.00,,---,0.00,VWS V14.01,2013-06-29 13:37:00,
2013-06-29 07:43:00,75.6,42.8,30.15,West,281,5.8,7.2,31,0.00,,---,0.00,VWS V14.01,2013-06-29 13:43:00,
2013-06-29 07:48:00,75.4,42.7,30.15,West,264,3.6,4.0,31,0.00,,---,0.00,VWS V14.01,2013-06-29 13:48:00,
2013-06-29 07:54:00,76.3,42.6,30.15,West,262,0.0,5.8,30,0.00,,---,0.00,VWS V14.01,2013-06-29 13:54:00,
2013-06-29 07:59:00,77.0,41.4,30.18,West,276,5.8,5.8,28,0.00,,---,0.00,VWS V14.01,2013-06-29 13:59:00,
2013-06-29 08:05:00,77.9,41.3,30.15,West,266,4.0,5.8,27,0.00,,---,0.00,VWS V14.01,2013-06-29 14:05:00,
2013-06-29 08:11:00,78.4,40.8,30.15,WSW,255,5.4,6.3,26,0.00,,---,0.00,VWS V14.01,2013-06-29 14:11:00,
2013-06-29 08:16:00,78.8,40.0,30.15,WSW,254,5.4,5.4,25,0.00,,---,0.00,VWS V14.01,2013-06-29 14:16:00,
2013-06-29 08:21:00,79.2,39.3,30.15,West,275,5.4,5.4,24,0.00,,---,0.00,VWS V14.01,2013-06-29 14:21:00,
2013-06-29 08:27:00,79.3,37.2,30.15,West,270,6.3,6.3,22,0.00,,---,0.00,VWS V14.01,2013-06-29 14:27:00,
2013-06-29 08:32:00,79.5,37.4,30.15,West,273,4.0,4.0,22,0.00,,---,0.00,VWS V14.01,2013-06-29 14:32:00,
2013-06-29 08:37:00,79.2,37.1,30.15,West,265,6.3,7.6,22,0.00,,---,0.00,VWS V14.01,2013-06-29 14:37:00,
2013-06-29 08:43:00,78.6,37.8,30.15,West,267,8.1,8.1,23,0.00,,---,0.00,VWS V14.01,2013-06-29 14:43:00,
2013-06-29 08:48:00,79.2,38.2,30.15,WNW,289,7.6,7.6,23,0.00,,---,0.00,VWS V14.01,2013-06-29 14:48:00,
2013-06-29 08:54:00,79.9,37.7,30.18,WNW,301,8.7,10.1,22,0.00,,---,0.00,VWS V14.01,2013-06-29 14:54:00,
2013-06-29 08:59:00,79.9,37.7,30.18,WNW,301,5.8,8.1,22,0.00,,---,0.00,VWS V14.01,2013-06-29 14:59:00,
2013-06-29 09:05:00,79.9,36.5,30.18,NW,306,8.7,8.7,21,0.00,,---,0.00,VWS V14.01,2013-06-29 15:05:00,
2013-06-29 09:11:00,79.9,36.5,30.15,NNW,327,2.7,11.0,21,0.00,,---,0.00,VWS V14.01,2013-06-29 15:11:00,
2013-06-29 09:16:00,79.9,36.5,30.15,NNW,330,8.1,10.1,21,0.00,,---,0.00,VWS V14.01,2013-06-29 15:16:00,
2013-06-29 09:21:00,79.5,36.2,30.15,WNW,300,8.3,8.3,21,0.00,,---,0.00,VWS V14.01,2013-06-29 15:21:00,
2013-06-29 09:26:00,79.5,36.2,30.15,NW,304,7.6,10.1,21,0.00,,---,0.00,VWS V14.01,2013-06-29 15:26:00,
2013-06-29 09:32:00,79.7,36.3,30.15,NNW,339,4.9,11.9,21,0.00,,---,0.00,VWS V14.01,2013-06-29 15:32:00,
2013-06-29 09:37:00,79.7,36.3,30.15,North,353,8.7,10.1,21,0.00,,---,0.00,VWS V14.01,2013-06-29 15:37:00,
2013-06-29 09:43:00,79.9,36.5,30.15,North,0,5.8,8.7,21,0.00,,---,0.00,VWS V14.01,2013-06-29 15:43:00,
2013-06-29 09:48:00,79.9,36.5,30.15,NNW,339,10.5,10.5,21,0.00,,---,0.00,VWS V14.01,2013-06-29 15:48:00,
2013-06-29 09:54:00,79.7,36.3,30.15,NNW,331,8.7,11.0,21,0.00,,---,0.00,VWS V14.01,2013-06-29 15:54:00,
2013-06-29 10:00:00,79.5,36.2,30.15,NW,311,13.2,25.5,21,0.00,,---,0.00,VWS V14.01,2013-06-29 16:00:00,
2013-06-29 10:05:00,79.5,36.2,30.15,NNW,332,6.3,6.3,21,0.00,,---,0.00,VWS V14.01,2013-06-29 16:05:00,
2013-06-29 10:11:00,79.7,36.3,30.15,NW,316,12.8,12.8,21,0.00,,---,0.00,VWS V14.01,2013-06-29 16:11:00,
2013-06-29 10:16:00,80.1,36.7,30.15,NW,307,13.2,13.2,21,0.00,,---,0.00,VWS V14.01,2013-06-29 16:16:00,
2013-06-29 10:22:00,80.2,36.8,30.15,NNW,338,13.2,13.2,21,0.00,,---,0.00,VWS V14.01,2013-06-29 16:22:00,
2013-06-29 10:28:00,80.4,37.0,30.15,NNW,333,15.0,15.0,21,0.00,,---,0.00,VWS V14.01,2013-06-29 16:28:00,
2013-06-29 10:33:00,80.6,35.9,30.15,NW,316,11.0,11.0,20,0.00,,---,0.00,VWS V14.01,2013-06-29 16:33:00,
2013-06-29 10:39:00,80.6,35.9,30.15,NNW,345,14.5,15.0,20,0.00,,---,0.00,VWS V14.01,2013-06-29 16:39:00,
2013-06-29 10:45:00,80.4,37.0,30.15,NNW,333,13.2,18.8,21,0.00,,---,0.00,VWS V14.01,2013-06-29 16:45:00,
2013-06-29 10:50:00,80.6,35.9,30.15,NNW,332,8.7,8.7,20,0.00,,---,0.00,VWS V14.01,2013-06-29 16:50:00,
2013-06-29 10:56:00,81.0,36.2,30.15,NW,324,6.3,8.3,20,0.00,,---,0.00,VWS V14.01,2013-06-29 16:56:00,
2013-06-29 11:01:00,81.1,36.3,30.15,North,353,11.0,13.2,20,0.00,,---,0.00,VWS V14.01,2013-06-29 17:01:00,
2013-06-29 11:07:00,81.0,36.2,30.15,NNW,341,8.3,10.1,20,0.00,,---,0.00,VWS V14.01,2013-06-29 17:07:00,
2013-06-29 11:12:00,81.3,36.5,30.15,NW,314,12.3,15.4,20,0.00,,---,0.00,VWS V14.01,2013-06-29 17:12:00,
2013-06-29 11:18:00,81.1,36.3,30.15,NNW,338,10.5,10.5,20,0.00,,---,0.00,VWS V14.01,2013-06-29 17:18:00,
2013-06-29 11:24:00,81.5,36.6,30.15,NNW,335,11.9,12.8,20,0.00,,---,0.00,VWS V14.01,2013-06-29 17:24:00,
2013-06-29 11:29:00,81.9,36.9,30.15,North,357,12.3,15.4,20,0.00,,---,0.00,VWS V14.01,2013-06-29 17:29:00,
2013-06-29 11:35:00,82.4,37.3,30.15,NW,323,10.5,12.3,20,0.00,,---,0.00,VWS V14.01,2013-06-29 17:35:00,
2013-06-29 11:40:00,82.4,37.3,30.15,NNW,335,12.3,15.0,20,0.00,,---,0.00,VWS V14.01,2013-06-29 17:40:00,
2013-06-29 11:46:00,82.2,37.2,30.15,NW,319,6.3,10.1,20,0.00,,---,0.00,VWS V14.01,2013-06-29 17:46:00,
2013-06-29 11:51:00,82.6,37.5,30.15,North,353,15.4,15.4,20,0.00,,---,0.00,VWS V14.01,2013-06-29 17:51:00,
2013-06-29 11:56:00,82.0,37.0,30.15,NNW,335,13.2,15.0,20,0.00,,---,0.00,VWS V14.01,2013-06-29 17:56:00,
2013-06-29 12:01:00,81.7,36.8,30.15,NNW,337,8.7,8.7,20,0.00,,---,0.00,VWS V14.01,2013-06-29 18:01:00,
2013-06-29 12:07:00,82.6,37.5,30.15,NNW,348,10.5,13.2,20,0.00,,---,0.00,VWS V14.01,2013-06-29 18:07:00,
2013-06-29 12:13:00,82.4,37.3,30.15,NNW,336,11.0,11.0,20,0.00,,---,0.00,VWS V14.01,2013-06-29 18:13:00,
2013-06-29 12:18:00,82.4,37.3,30.15,North,9,15.4,18.8,20,0.00,,---,0.00,VWS V14.01,2013-06-29 18:18:00,
2013-06-29 12:24:00,82.4,37.3,30.15,North,357,15.0,15.0,20,0.00,,---,0.00,VWS V14.01,2013-06-29 18:24:00,
2013-06-29 12:29:00,81.9,36.9,30.15,NNW,342,8.3,8.3,20,0.00,,---,0.00,VWS V14.01,2013-06-29 18:29:00,
2013-06-29 12:34:00,81.9,36.9,30.15,NNW,331,12.3,15.4,20,0.00,,---,0.00,VWS V14.01,2013-06-29 18:34:00,
2013-06-29 12:39:00,82.4,37.3,30.15,NW,305,11.9,13.6,20,0.00,,---,0.00,VWS V14.01,2013-06-29 18:39:00,
2013-06-29 12:45:00,82.8,37.6,30.15,NNE,14,8.7,11.4,20,0.00,,---,0.00,VWS V14.01,2013-06-29 18:45:00,
2013-06-29 12:50:00,82.4,37.3,30.15,North,8,12.3,14.5,20,0.00,,---,0.00,VWS V14.01,2013-06-29 18:50:00,
2013-06-29 12:55:00,81.7,36.8,30.12,North,0,15.4,17.0,20,0.00,,---,0.00,VWS V14.01,2013-06-29 18:55:00,
2013-06-29 13:00:00,82.2,37.2,30.12,NNE,18,9.2,12.8,20,0.00,,---,0.00,VWS V14.01,2013-06-29 19:00:00,
2013-06-29 13:06:00,82.2,37.2,30.12,North,357,8.3,12.8,20,0.00,,---,0.00,VWS V14.01,2013-06-29 19:06:00,
2013-06-29 13:11:00,81.9,36.9,30.12,North,4,16.3,16.3,20,0.00,,---,0.00,VWS V14.01,2013-06-29 19:11:00,
2013-06-29 13:16:00,82.0,37.0,30.12,North,357,16.8,16.8,20,0.00,,---,0.00,VWS V14.01,2013-06-29 19:16:00,
2013-06-29 13:21:00,82.2,37.2,30.12,North,349,8.3,10.1,20,0.00,,---,0.00,VWS V14.01,2013-06-29 19:21:00,
2013-06-29 13:27:00,82.2,37.2,30.12,NNW,331,11.4,13.2,20,0.00,,---,0.00,VWS V14.01,2013-06-29 19:27:00,
2013-06-29 13:32:00,83.1,37.9,30.12,NNW,329,15.0,16.3,20,0.00,,---,0.00,VWS V14.01,2013-06-29 19:32:00,
2013-06-29 13:38:00,83.8,38.5,30.12,NNE,14,8.3,10.5,20,0.00,,---,0.00,VWS V14.01,2013-06-29 19:38:00,
2013-06-29 13:43:00,83.7,38.4,30.12,North,353,13.2,13.2,20,0.00,,---,0.00,VWS V14.01,2013-06-29 19:43:00,
2013-06-29 13:49:00,83.5,38.2,30.12,NNE,20,12.8,12.8,20,0.00,,---,0.00,VWS V14.01,2013-06-29 19:49:00,
2013-06-29 13:54:00,83.1,37.9,30.12,North,350,13.2,13.2,20,0.00,,---,0.00,VWS V14.01,2013-06-29 19:54:00,
2013-06-29 13:59:00,82.6,37.5,30.12,North,357,14.1,14.1,20,0.00,,---,0.00,VWS V14.01,2013-06-29 19:59:00,
2013-06-29 14:05:00,82.4,37.3,30.12,North,349,10.1,10.1,20,0.00,,---,0.00,VWS V14.01,2013-06-29 20:05:00,
2013-06-29 14:10:00,82.8,37.6,30.12,North,11,11.9,14.1,20,0.00,,---,0.00,VWS V14.01,2013-06-29 20:10:00,
2013-06-29 14:16:00,82.8,37.6,30.12,NNW,345,12.8,15.0,20,0.00,,---,0.00,VWS V14.01,2013-06-29 20:16:00,
2013-06-29 14:21:00,82.6,37.5,30.12,NNW,340,6.3,13.6,20,0.00,,---,0.00,VWS V14.01,2013-06-29 20:21:00,
2013-06-29 14:27:00,82.6,37.5,30.12,North,357,20.1,20.1,20,0.00,,---,0.00,VWS V14.01,2013-06-29 20:27:00,
2013-06-29 14:33:00,82.6,37.5,30.12,NNE,18,10.5,10.5,20,0.00,,---,0.00,VWS V14.01,2013-06-29 20:33:00,
2013-06-29 14:38:00,82.8,37.6,30.12,North,7,10.5,10.5,20,0.00,,---,0.00,VWS V14.01,2013-06-29 20:38:00,
2013-06-29 14:44:00,82.9,37.8,30.12,NNE,13,11.0,17.4,20,0.00,,---,0.00,VWS V14.01,2013-06-29 20:44:00,
2013-06-29 14:49:00,82.4,37.3,30.12,North,357,16.3,16.3,20,0.00,,---,0.00,VWS V14.01,2013-06-29 20:49:00,
2013-06-29 14:54:00,82.0,37.0,30.12,North,0,10.5,10.5,20,0.00,,---,0.00,VWS V14.01,2013-06-29 20:54:00,
2013-06-29 14:59:00,82.0,37.0,30.12,North,353,12.8,12.8,20,0.00,,---,0.00,VWS V14.01,2013-06-29 20:59:00,
2013-06-29 15:05:00,82.4,37.3,30.12,North,353,15.9,15.9,20,0.00,,---,0.00,VWS V14.01,2013-06-29 21:05:00,
2013-06-29 15:10:00,83.1,37.9,30.09,North,353,13.2,15.9,20,0.00,,---,0.00,VWS V14.01,2013-06-29 21:10:00,
2013-06-29 15:15:00,83.1,36.6,30.09,NNE,22,10.5,12.3,19,0.00,,---,0.00,VWS V14.01,2013-06-29 21:15:00,
2013-06-29 15:20:00,82.9,37.8,30.12,North,0,15.4,15.4,20,0.00,,---,0.00,VWS V14.01,2013-06-29 21:20:00,
2013-06-29 15:26:00,83.5,38.2,30.12,North,357,13.2,13.2,20,0.00,,---,0.00,VWS V14.01,2013-06-29 21:26:00,
2013-06-29 15:31:00,83.3,36.8,30.12,North,0,13.2,15.4,19,0.00,,---,0.00,VWS V14.01,2013-06-29 21:31:00,
2013-06-29 15:37:00,83.1,36.6,30.09,North,353,8.1,11.0,19,0.00,,---,0.00,VWS V14.01,2013-06-29 21:37:00,
2013-06-29 15:43:00,83.8,37.2,30.09,North,0,15.0,15.0,19,0.00,,---,0.00,VWS V14.01,2013-06-29 21:43:00,
2013-06-29 15:48:00,83.1,36.6,30.09,NNW,343,10.1,12.8,19,0.00,,---,0.00,VWS V14.01,2013-06-29 21:48:00,
2013-06-29 15:53:00,81.9,36.9,30.09,NNW,338,17.4,17.4,20,0.00,,---,0.00,VWS V14.01,2013-06-29 21:53:00,
2013-06-29 15:58:00,81.9,36.9,30.09,NNW,332,5.8,10.1,20,0.00,,---,0.00,VWS V14.01,2013-06-29 21:58:00,
2013-06-29 16:04:00,82.9,36.5,30.09,North,357,17.9,17.9,19,0.00,,---,0.00,VWS V14.01,2013-06-29 22:04:00,
2013-06-29 16:09:00,82.8,36.3,30.09,North,2,12.8,17.0,19,0.00,,---,0.00,VWS V14.01,2013-06-29 22:09:00,
2013-06-29 16:15:00,82.8,36.3,30.09,North,4,15.4,15.4,19,0.00,,---,0.00,VWS V14.01,2013-06-29 22:15:00,
2013-06-29 16:20:00,82.8,36.3,30.09,NNW,328,13.2,13.2,19,0.00,,---,0.00,VWS V14.01,2013-06-29 22:20:00,
2013-06-29 16:26:00,82.9,36.5,30.09,NNE,12,15.9,15.9,19,0.00,,---,0.00,VWS V14.01,2013-06-29 22:26:00,
2013-06-29 16:31:00,82.2,37.2,30.09,North,8,12.3,12.3,20,0.00,,---,0.00,VWS V14.01,2013-06-29 22:31:00,
2013-06-29 16:37:00,82.8,36.3,30.09,NNW,344,13.2,15.0,19,0.00,,---,0.00,VWS V14.01,2013-06-29 22:37:00,
2013-06-29 16:43:00,82.9,36.5,30.09,NNE,14,13.6,15.4,19,0.00,,---,0.00,VWS V14.01,2013-06-29 22:43:00,
2013-06-29 16:48:00,83.1,36.6,30.09,NNW,346,10.5,17.0,19,0.00,,---,0.00,VWS V14.01,2013-06-29 22:48:00,
2013-06-29 16:53:00,83.1,36.6,30.09,NNE,14,12.8,12.8,19,0.00,,---,0.00,VWS V14.01,2013-06-29 22:53:00,
2013-06-29 16:58:00,83.3,36.8,30.09,North,353,12.3,12.3,19,0.00,,---,0.00,VWS V14.01,2013-06-29 22:58:00,
2013-06-29 17:04:00,83.7,37.1,30.09,NNW,344,14.5,14.5,19,0.00,,---,0.00,VWS V14.01,2013-06-29 23:04:00,
2013-06-29 17:09:00,83.5,36.9,30.09,North,1,12.3,12.3,19,0.00,,---,0.00,VWS V14.01,2013-06-29 23:09:00,
2013-06-29 17:14:00,82.9,36.5,30.09,North,357,8.7,22.8,19,0.00,,---,0.00,VWS V14.01,2013-06-29 23:14:00,
2013-06-29 17:19:00,82.8,36.3,30.09,NNE,15,11.9,12.8,19,0.00,,---,0.00,VWS V14.01,2013-06-29 23:19:00,
2013-06-29 17:25:00,82.9,36.5,30.09,NNE,13,10.1,15.4,19,0.00,,---,0.00,VWS V14.01,2013-06-29 23:25:00,
2013-06-29 17:30:00,83.3,36.8,30.09,North,3,17.4,20.6,19,0.00,,---,0.00,VWS V14.01,2013-06-29 23:30:00,
2013-06-29 17:35:00,83.7,32.8,30.09,North,0,17.4,17.4,16,0.00,,---,0.00,VWS V14.01,2013-06-29 23:35:00,
2013-06-29 17:40:00,83.5,32.6,30.09,NNE,21,15.4,15.4,16,0.00,,---,0.00,VWS V14.01,2013-06-29 23:40:00,
2013-06-29 17:45:00,83.5,32.6,30.09,NNE,13,19.7,19.7,16,0.00,,---,0.00,VWS V14.01,2013-06-29 23:45:00,
2013-06-29 17:50:00,83.5,32.6,30.09,North,3,15.4,15.9,16,0.00,,---,0.00,VWS V14.01,2013-06-29 23:50:00,
2013-06-29 17:56:00,83.5,32.6,30.09,North,353,10.1,12.8,16,0.00,,---,0.00,VWS V14.01,2013-06-29 23:56:00,
2013-06-29 18:01:00,83.3,32.5,30.09,North,357,13.2,15.9,16,0.00,,---,0.00,VWS V14.01,2013-06-30 00:01:00,
2013-06-29 18:06:00,83.1,32.3,30.09,North,5,11.0,11.0,16,0.00,,---,0.00,VWS V14.01,2013-06-30 00:06:00,
2013-06-29 18:11:00,83.3,32.5,30.09,North,0,15.9,15.9,16,0.00,,---,0.00,VWS V14.01,2013-06-30 00:11:00,
2013-06-29 18:17:00,82.9,32.2,30.09,North,7,17.9,17.9,16,0.00,,---,0.00,VWS V14.01,2013-06-30 00:17:00,
2013-06-29 18:22:00,82.8,32.0,30.12,NNE,17,15.0,15.0,16,0.00,,---,0.00,VWS V14.01,2013-06-30 00:22:00,
2013-06-29 18:28:00,82.4,31.8,30.12,NE,40,13.2,15.4,16,0.00,,---,0.00,VWS V14.01,2013-06-30 00:28:00,
2013-06-29 18:33:00,82.2,33.1,30.12,NNE,15,10.1,11.0,17,0.00,,---,0.00,VWS V14.01,2013-06-30 00:33:00,
2013-06-29 18:39:00,82.0,33.0,30.12,NNE,28,10.1,15.4,17,0.00,,---,0.00,VWS V14.01,2013-06-30 00:39:00,
2013-06-29 18:44:00,82.0,33.0,30.12,NNE,28,17.4,17.4,17,0.00,,---,0.00,VWS V14.01,2013-06-30 00:44:00,
2013-06-29 18:50:00,81.5,32.5,30.12,NE,44,15.4,15.4,17,0.00,,---,0.00,VWS V14.01,2013-06-30 00:50:00,
2013-06-29 18:56:00,81.1,35.0,30.12,NNE,25,13.2,13.2,19,0.00,,---,0.00,VWS V14.01,2013-06-30 00:56:00,
2013-06-29 19:01:00,80.8,34.7,30.12,NE,43,13.2,15.0,19,0.00,,---,0.00,VWS V14.01,2013-06-30 01:01:00,
2013-06-29 19:07:00,80.8,34.7,30.12,NE,36,12.3,13.2,19,0.00,,---,0.00,VWS V14.01,2013-06-30 01:07:00,
2013-06-29 19:12:00,80.1,31.4,30.12,NE,43,11.9,12.3,17,0.00,,---,0.00,VWS V14.01,2013-06-30 01:12:00,
2013-06-29 19:18:00,79.5,30.9,30.12,NNE,22,13.2,13.2,17,0.00,,---,0.00,VWS V14.01,2013-06-30 01:18:00,
2013-06-29 19:24:00,79.3,34.8,30.12,NNE,27,11.4,12.3,20,0.00,,---,0.00,VWS V14.01,2013-06-30 01:24:00,
2013-06-29 19:29:00,79.3,34.8,30.12,NE,39,11.0,11.0,20,0.00,,---,0.00,VWS V14.01,2013-06-30 01:29:00,
2013-06-29 19:35:00,78.8,34.4,30.12,NNE,20,8.1,8.3,20,0.00,,---,0.00,VWS V14.01,2013-06-30 01:35:00,
2013-06-29 19:41:00,78.1,33.8,30.12,NNE,28,8.1,10.5,20,0.00,,---,0.00,VWS V14.01,2013-06-30 01:41:00,
2013-06-29 19:46:00,77.4,30.6,30.12,NNE,18,11.0,11.0,18,0.00,,---,0.00,VWS V14.01,2013-06-30 01:46:00,
2013-06-29 19:52:00,76.8,30.1,30.12,NE,34,8.3,11.0,18,0.00,,---,0.00,VWS V14.01,2013-06-30 01:52:00,
2013-06-29 19:57:00,75.9,32.0,30.12,NNE,24,12.8,12.8,20,0.00,,---,0.00,VWS V14.01,2013-06-30 01:57:00,
2013-06-29 20:03:00,75.0,32.5,30.12,NNE,22,10.1,10.1,21,0.00,,---,0.00,VWS V14.01,2013-06-30 02:03:00,
2013-06-29 20:09:00,73.8,31.4,30.12,NNE,32,11.4,11.4,21,0.00,,---,0.00,VWS V14.01,2013-06-30 02:09:00,
2013-06-29 20:14:00,73.0,30.8,30.12,NNE,19,10.5,10.5,21,0.00,,---,0.00,VWS V14.01,2013-06-30 02:14:00,
2013-06-29 20:19:00,72.0,31.1,30.12,NNE,31,10.1,10.5,22,0.00,,---,0.00,VWS V14.01,2013-06-30 02:19:00,
2013-06-29 20:24:00,71.4,30.6,30.12,NNE,29,8.7,8.7,22,0.00,,---,0.00,VWS V14.01,2013-06-30 02:24:00,
2013-06-29 20:30:00,70.9,30.2,30.12,NNE,25,9.2,9.2,22,0.00,,---,0.00,VWS V14.01,2013-06-30 02:30:00,
2013-06-29 20:35:00,70.3,29.7,30.12,NNE,32,12.3,12.8,22,0.00,,---,0.00,VWS V14.01,2013-06-30 02:35:00,
2013-06-29 20:41:00,70.2,30.7,30.12,NE,37,11.4,12.8,23,0.00,,---,0.00,VWS V14.01,2013-06-30 02:41:00,
2013-06-29 20:46:00,69.8,30.4,30.12,NE,35,10.5,11.0,23,0.00,,---,0.00,VWS V14.01,2013-06-30 02:46:00,
2013-06-29 20:52:00,69.6,30.2,30.12,NE,34,10.5,11.0,23,0.00,,---,0.00,VWS V14.01,2013-06-30 02:52:00,
2013-06-29 20:57:00,69.3,29.9,30.12,NE,38,10.5,10.5,23,0.00,,---,0.00,VWS V14.01,2013-06-30 02:57:00,
2013-06-29 21:03:00,69.3,29.9,30.12,NE,43,10.1,10.5,23,0.00,,---,0.00,VWS V14.01,2013-06-30 03:03:00,
2013-06-29 21:09:00,68.5,29.3,30.15,NNE,32,10.1,10.1,23,0.00,,---,0.00,VWS V14.01,2013-06-30 03:09:00,
2013-06-29 21:14:00,68.2,29.0,30.15,NE,35,11.4,11.4,23,0.00,,---,0.00,VWS V14.01,2013-06-30 03:14:00,
2013-06-29 21:20:00,68.0,28.9,30.15,NE,41,10.5,11.0,23,0.00,,---,0.00,VWS V14.01,2013-06-30 03:20:00,
2013-06-29 21:26:00,68.0,28.9,30.15,NE,41,8.3,8.3,23,0.00,,---,0.00,VWS V14.01,2013-06-30 03:26:00,
2013-06-29 21:31:00,67.8,29.7,30.15,NE,41,8.3,8.3,24,0.00,,---,0.00,VWS V14.01,2013-06-30 03:31:00,
2013-06-29 21:37:00,66.9,29.0,30.15,NE,42,8.7,8.7,24,0.00,,---,0.00,VWS V14.01,2013-06-30 03:37:00,
2013-06-29 21:42:00,66.0,29.2,30.15,NE,42,8.3,8.7,25,0.00,,---,0.00,VWS V14.01,2013-06-30 03:42:00,
2013-06-29 21:48:00,65.7,29.9,30.15,NE,42,8.3,8.3,26,0.00,,---,0.00,VWS V14.01,2013-06-30 03:48:00,
2013-06-29 21:54:00,65.5,30.6,30.15,NE,44,7.6,8.1,27,0.00,,---,0.00,VWS V14.01,2013-06-30 03:54:00,
2013-06-29 21:59:00,65.1,30.3,30.15,NE,46,8.3,8.3,27,0.00,,---,0.00,VWS V14.01,2013-06-30 03:59:00,
2013-06-29 22:01:00,65.1,30.3,30.15,NE,46,8.3,8.3,27,0.00,,---,0.00,VWS V14.01,2013-06-30 04:01:00,
2013-06-29 22:02:00,65.1,30.3,30.15,NE,46,8.3,8.3,27,0.00,,---,0.00,VWS V14.01,2013-06-30 04:02:00,
2013-06-29 22:03:00,65.1,30.3,30.15,NE,43,8.3,8.3,27,0.00,,---,0.00,VWS V14.01,2013-06-30 04:03:00,
2013-06-29 22:04:00,64.9,30.2,30.15,NE,41,8.3,8.3,27,0.00,,---,0.00,VWS V14.01,2013-06-30 04:04:00,
2013-06-29 22:06:00,64.9,30.2,30.15,NE,41,8.3,8.3,27,0.00,,---,0.00,VWS V14.01,2013-06-30 04:06:00,
2013-06-29 22:12:00,65.7,30.8,30.15,NE,37,8.1,8.7,27,0.00,,---,0.00,VWS V14.01,2013-06-30 04:12:00,
2013-06-29 22:18:00,66.0,31.1,30.15,NE,40,8.7,8.7,27,0.00,,---,0.00,VWS V14.01,2013-06-30 04:18:00,
2013-06-29 22:23:00,66.0,30.2,30.15,NE,40,8.3,8.3,26,0.00,,---,0.00,VWS V14.01,2013-06-30 04:23:00,
2013-06-29 22:29:00,66.0,30.2,30.15,NE,43,7.6,8.1,26,0.00,,---,0.00,VWS V14.01,2013-06-30 04:29:00,
2013-06-29 22:34:00,65.8,31.0,30.15,NE,44,7.6,7.6,27,0.00,,---,0.00,VWS V14.01,2013-06-30 04:34:00,
2013-06-29 22:39:00,65.5,30.6,30.15,NE,47,5.8,6.3,27,0.00,,---,0.00,VWS V14.01,2013-06-30 04:39:00,
2013-06-29 22:45:00,64.9,30.2,30.15,NE,54,6.3,6.3,27,0.00,,---,0.00,VWS V14.01,2013-06-30 04:45:00,
2013-06-29 22:51:00,64.4,30.6,30.15,NE,51,6.3,6.3,28,0.00,,---,0.00,VWS V14.01,2013-06-30 04:51:00,
2013-06-29 22:56:00,64.4,30.6,30.15,NE,50,6.7,6.7,28,0.00,,---,0.00,VWS V14.01,2013-06-30 04:56:00,
2013-06-29 23:02:00,64.4,30.6,30.15,NE,51,6.3,6.7,28,0.00,,---,0.00,VWS V14.01,2013-06-30 05:02:00,
2013-06-29 23:07:00,64.8,30.9,30.15,NE,46,7.2,7.2,28,0.00,,---,0.00,VWS V14.01,2013-06-30 05:07:00,
2013-06-29 23:13:00,64.8,30.9,30.15,NE,43,6.7,7.2,28,0.00,,---,0.00,VWS V14.01,2013-06-30 05:13:00,
2013-06-29 23:19:00,64.8,30.9,30.15,NE,45,7.2,7.2,28,0.00,,---,0.00,VWS V14.01,2013-06-30 05:19:00,
2013-06-29 23:25:00,65.1,31.2,30.15,NE,46,6.7,7.2,28,0.00,,---,0.00,VWS V14.01,2013-06-30 05:25:00,
2013-06-29 23:30:00,65.1,31.2,30.15,NE,45,6.7,6.7,28,0.00,,---,0.00,VWS V14.01,2013-06-30 05:30:00,
2013-06-29 23:36:00,64.8,30.9,30.15,NE,45,5.8,5.8,28,0.00,,---,0.00,VWS V14.01,2013-06-30 05:36:00,
2013-06-29 23:41:00,64.8,30.9,30.15,NE,46,5.4,5.4,28,0.00,,---,0.00,VWS V14.01,2013-06-30 05:41:00,
2013-06-29 23:47:00,64.4,31.5,30.15,NE,48,6.3,6.3,29,0.00,,---,0.00,VWS V14.01,2013-06-30 05:47:00,
2013-06-29 23:53:00,64.4,31.5,30.18,NE,48,7.2,7.2,29,0.00,,---,0.00,VWS V14.01,2013-06-30 05:53:00,
2013-06-29 23:58:00,64.4,31.5,30.18,NE,44,7.6,7.6,29,0.00,,---,0.00,VWS V14.01,2013-06-30 05:58:00,